Location: Corralito
(10.2667°N, 66.9500°W)
Time: 18:17:55
(UTC+00:00)

ARIANE 5 DEB (SYLDA) - Pass Details

Date: 06 December 2023
Orbit: 270 x 8195 km, 6.8° (Epoch: 21 February)

Event Time Altitude Azimuth Distance (km) Brightness Sun altitude
Rises 21:51:33 0° 269° (W) 5,759 9.5 2.3°
Reaches altitude 10° 21:54:11 10° 267° (W) 5,325 9.4 1.7°
Maximum altitude 22:15:39 81° 182° (S) 5,709 8.0 -3.2°
Drops below altitude 10° 23:24:55 10° 99° (E) 12,099 9.1 -19.1°
Enters shadow 23:34:50 - 99° (E) 12,400 9.1 -21.3°
